Probability
0 0 0 0 0 0 0 0 1 2 2 1 1 2 2 2 2 2 1 1 1 0 0 0 0 0 0 0 0 0 0 0 0 0 0 0 0 0 0 0 0 0 0
0 0 0 0 0 0 0 0 0 1 1 0 0 1 1 1 1 1 0 0 0 0 0 0 0 0 0 0 0 0 0 0 0 0 0 0 0 0 0 0 0 0 0
0 0 0 0 0 0 0 0 0 0 0 0 0 0 0 0 0 0 0 0 0 0 0 0 0 0 0 0 0 0 0 0 0 0 0 0 0 0 0 0 0 0 0
0 0 0 0 0 0 0 0 0 0 0 0 0 0 0 0 0 0 0 0 0 0 0 0 0 0 0 0 0 0 0 0 0 0 0 0 0 0 0 0 0 0 0
0 0 0 0 0 0 0 0 0 0 0 0 0 0 0 0 0 0 0 0 0 0 0 0 0 0 0 0 0 0 0 0 0 0 0 0 0 0 0 0 0 0 0
0 0 0 0 0 0 0 0 0 0 0 0 0 0 0 0 0 0 0 0 0 0 0 0 0 0 0 0 0 0 0 0 0 0 0 0 0 0 0 0 0 0 0
0 0 0 0 0 0 0 0 0 0 0 0 0 0 0 0 0 0 0 0 0 0 0 0 0 0 0 0 0 0 0 0 0 0 0 0 0 0 0 0 0 0 0
0 0 0 0 0 0 0 0 0 0 0 0 0 0 0 0 0 0 0 0 0 0 0 0 0 0 0 0 0 0 0 0 0 0 0 0 0 0 0 0 0 0 0
0 0 0 0 0 0 0 0 0 0 0 0 0 0 0 0 0 0 0 0 0 0 0 0 0 0 0 0 0 0 0 0 0 0 0 0 0 0 0 0 0 0 0
0 0 0 0 0 0 0 0 0 0 0 0 0 0 0 0 0 0 0 0 0 0 0 0 0 0 0 0 0 0 0 0 0 0 0 0 0 0 0 0 0 0 0
0 0 0 0 0 0 0 0 0 0 0 0 0 0 0 0 0 0 0 0 0 0 0 0 0 0 0 0 0 0 0 0 0 0 0 0 0 0 0 0 0 0 0
0 0 0 0 0 0 0 0 0 0 0 0 0 0 0 0 0 0 0 0 0 0 0 0 0 0 0 0 0 0 0 0 0 0 0 0 0 0 0 0 0 0 0
0 0 0 0 0 0 0 0 0 0 0 0 0 0 0 0 0 0 0 0 0 0 0 0 0 0 0 0 0 0 0 0 0 0 0 0 0 0 0 0 0 0 0
0 0 0 0 0 0 0 0 0 0 0 0 0 0 0 0 0 0 0 0 0 0 0 0 0 0 0 0 0 0 0 0 0 0 0 0 0 0 0 0 0 0 0
0 0 0 0 0 0 0 0 0 0 0 0 0 0 0 0 0 0 0 0 0 0 0 0 0 0 0 0 0 0 0 0 0 0 0 0 0 0 0 0 0 0 0
0 0 0 0 0 0 0 0 0 0 0 0 0 0 0 0 0 0 0 0 0 0 0 0 0 0 0 0 0 0 0 0 0 0 0 0 0 0 0 0 0 0 0
0 0 0 0 0 0 0 0 0 0 0 0 0 0 0 0 0 0 0 0 0 0 0 0 0 0 0 0 0 0 0 0 0 0 0 0 0 0 0 0 0 0 0
0 0 0 0 0 0 0 0 0 0 0 0 0 0 0 0 0 0 0 0 0 0 0 0 0 0 0 0 0 0 0 0 0 0 0 0 0 0 0 0 0 0 0
0 0 0 0 0 0 0 0 0 0 0 0 0 0 0 0 0 0 0 0 0 0 0 0 0 0 0 0 0 0 0 0 0 0 0 0 0 0 0 0 0 0 0
0 0 0 0 0 0 0 0 0 0 0 0 0 0 0 0 0 0 0 0 0 0 0 0 0 0 0 0 0 0 0 0 0 0 0 0 0 0 0 0 0 0 0
0 0 0 0 0 0 0 0 0 0 0 0 0 0 0 0 0 0 0 0 0 0 0 0 0 0 0 0 0 0 0 0 0 0 0 0 0 0 0 0 0 0 0
0 0 0 0 0 0 0 0 0 0 0 0 0 0 0 0 0 0 0 0 0 0 0 0 0 0 0 0 0 0 0 0 0 0 0 0 0 0 0 0 0 0 0
0 0 0 0 0 0 0 0 0 0 0 0 0 0 0 0 0 0 0 0 0 0 0 0 0 0 0 0 0 0 0 0 0 0 0 0 0 0 0 0 0 0 0
0 0 0 0 0 0 0 0 0 0 0 0 0 0 0 0 0 0 0 0 0 0 0 0 0 0 0 0 0 0 0 0 0 0 0 0 0 0 0 0 0 0 0
0 0 0 0 0 0 0 0 0 0 0 0 0 0 0 0 0 0 0 0 0 0 0 0 0 0 0 0 0 0 0 0 0 0 0 0 0 0 0 0 0 0 0
0 0 0 0 0 0 0 0 0 0 0 0 0 0 0 0 0 0 0 0 0 0 0 0 0 0 0 0 0 0 0 0 0 0 0 0 0 0 0 0 0 0 0
Wind_Speed
11 10 10 10 10 9 9 9 8 7 6 6 6 5 4 3 2 1 1 2 4 4 4 4 5 4 4 3 3 3 3 3 3 2 2 2 3 3 4 4 4 5 6
10 10 10 10 10 10 10 10 9 9 8 7 6 6 6 5 4 3 1 1 2 3 4 5 5 4 5 4 4 4 4 4 3 3 3 3 3 2 3 4 3 3 4
9 10 10 11 11 11 10 10 10 9 9 9 8 7 6 5 4 4 2 1 1 2 2 3 4 4 4 4 4 4 4 4 3 3 3 3 3 3 4 4 4 4 4
9 10 10 10 10 10 10 10 10 10 10 10 9 9 8 7 6 5 3 3 2 1 1 2 2 3 3 4 4 5 4 4 4 4 4 4 3 3 4 5 5 4 4
9 9 10 9 9 9 10 10 10 10 10 10 9 9 9 8 8 7 4 3 3 2 1 0 1 1 0 2 3 4 5 5 5 4 4 4 4 4 4 4 5 5 5
9 9 8 8 8 9 9 9 10 10 10 10 9 9 9 9 11 10 6 3 2 2 2 1 1 3 4 4 1 1 1 3 5 4 4 4 5 4 4 4 6 6 4
8 8 8 8 8 8 8 9 9 9 9 9 9 9 9 11 13 11 8 4 3 3 2 1 0 1 2 5 6 6 4 4 2 1 4 4 5 5 6 6 5 5 5
7 8 8 8 8 8 8 8 9 8 8 8 8 9 8 11 14 12 8 4 4 4 3 1 1 1 1 3 7 7 7 6 2 2 5 5 5 5 4 5 8 8 7
7 7 7 8 8 8 8 8 8 7 7 7 8 8 9 10 14 13 9 4 3 4 4 3 1 2 2 1 6 9 9 8 10 14 14 12 12 9 4 5 6 6 6
6 6 6 7 7 7 8 8 7 6 7 6 7 8 8 9 13 14 11 3 4 3 3 3 5 4 2 2 5 8 9 9 9 10 9 9 9 7 3 3 3 4 6
4 4 5 6 6 7 6 6 6 6 6 7 7 7 8 9 11 13 12 5 3 3 3 3 4 5 3 2 1 5 8 9 8 8 7 7 6 6 6 5 4 2 3
3 3 4 5 5 5 6 6 6 6 6 7 7 7 7 7 9 10 11 9 6 4 3 3 4 5 5 3 4 9 8 7 7 6 6 6 6 6 6 7 9 9 8
3 3 3 4 4 4 5 5 5 6 5 6 6 6 6 6 7 9 9 8 8 4 5 7 6 5 5 6 9 8 6 5 6 6 6 6 6 6 6 7 8 9 10
4 3 2 2 3 4 3 4 4 5 6 6 6 6 6 6 8 8 6 4 4 4 5 7 7 7 6 8 7 5 4 4 5 6 7 6 6 5 5 5 5 5 7
4 3 2 1 1 2 2 3 4 5 5 6 6 6 7 7 9 11 8 6 5 4 3 4 4 5 5 5 5 5 5 5 6 6 6 6 5 5 4 4 3 4 5
3 3 2 1 1 1 1 1 2 1 2 3 5 7 5 7 9 9 9 9 8 5 3 6 5 5 5 5 5 5 5 5 5 5 6 5 5 5 5 4 3 4 5
3 3 2 2 1 1 1 2 1 3 4 3 4 6 7 8 9 8 7 6 7 4 5 6 5 5 5 5 5 5 5 5 4 5 5 5 5 5 5 4 4 4 5
3 3 3 3 2 2 1 1 1 2 1 2 4 4 4 6 8 8 7 2 5 6 5 5 5 5 4 4 4 5 5 5 4 5 5 5 5 5 5 5 4 4 4
3 3 3 3 3 3 2 2 1 1 1 1 1 3 3 1 2 4 5 4 5 5 4 4 4 4 4 4 4 4 4 4 5 4 4 4 4 4 4 4 4 4 3
3 2 4 4 4 4 3 3 2 2 1 0 1 2 1 0 1 3 3 3 3 3 3 3 3 3 3 3 3 3 4 4 4 4 4 4 4 4 4 5 4 4 3
3 3 5 6 5 4 4 4 3 3 2 1 0 2 1 1 1 2 2 2 2 2 2 2 2 2 2 2 2 3 3 3 3 3 4 4 4 4 3 3 3 3 3
3 3 4 4 4 4 4 4 4 4 3 3 2 4 5 3 1 1 1 2 2 1 1 1 1 1 1 0 0 1 2 3 3 3 4 4 4 4 4 3 3 3 4
4 4 4 4 4 4 5 5 5 5 4 4 4 4 5 4 3 3 3 3 3 3 3 2 2 2 2 1 1 1 2 2 2 2 3 4 4 4 4 4 4 4 4
5 5 5 4 4 5 5 5 5 5 5 5 5 5 5 5 5 5 4 4 4 4 4 4 3 4 4 3 3 3 2 1 1 3 4 4 4 4 4 4 4 5 5
6 5 5 5 5 5 5 5 5 5 6 6 6 6 6 6 6 6 5 5 6 6 6 6 5 5 6 6 6 4 3 1 2 3 4 4 5 5 5 5 4 5 5
7 6 6 5 5 5 5 5 5 5 5 6 6 6 6 6 7 7 6 7 7 7 7 6 7 8 7 6 7 5 6 5 4 5 5 5 6 5 6 5 6 6 6
Wind_Direction
12 18 22 23 24 26 29 27 26 28 28 35 36 43 54 59 66 82 145 175 181 171 168 172 174 168 173 180 186 188 192 198 199 163 156 183 197 204 179 210 195 195 169
15 21 27 27 29 31 31 30 30 33 32 35 41 40 39 41 46 48 48 174 172 160 159 165 166 166 173 178 183 189 190 192 191 179 170 184 190 183 181 180 180 182 154
21 25 28 33 35 34 33 33 35 36 36 36 39 41 37 33 37 42 44 46 94 137 160 175 175 174 176 183 188 190 191 186 187 189 167 160 167 169 170 161 161 149 135
25 28 31 34 35 37 37 37 38 38 38 36 36 35 34 32 26 26 35 45 50 84 151 161 178 185 187 189 191 189 187 179 182 185 169 162 155 168 178 163 144 128 118
26 30 29 33 36 37 39 38 39 37 38 37 36 35 34 31 24 13 16 32 35 30 35 88 193 197 238 212 205 191 187 181 178 179 167 160 157 166 168 157 136 126 100
27 30 28 29 33 34 36 36 36 36 36 36 33 33 35 31 23 23 8 41 45 32 17 349 207 195 188 182 160 104 171 188 177 174 171 164 149 145 144 146 146 150 121
28 29 27 29 31 30 32 33 31 35 35 32 30 28 31 27 22 26 17 24 57 57 49 26 338 115 186 158 148 150 116 59 8 192 152 140 139 143 151 150 145 121 107
30 31 30 28 30 30 31 29 26 29 32 29 28 26 27 26 20 20 4 40 63 60 59 51 38 103 137 166 160 146 123 104 95 132 111 103 105 124 130 122 114 111 106
33 32 33 31 31 29 28 27 25 24 28 30 30 24 23 25 19 15 358 44 61 65 63 63 45 111 67 267 158 135 119 101 72 68 69 78 68 54 64 129 140 138 123
40 37 36 35 32 29 26 22 23 26 25 29 35 30 27 24 19 15 2 25 49 61 71 84 64 62 84 308 158 142 132 125 123 115 109 115 106 93 23 120 138 140 135
58 52 44 42 39 32 26 22 20 26 27 28 34 33 33 27 21 21 13 16 31 53 68 81 80 72 84 27 46 127 125 131 126 120 111 104 97 90 79 72 63 67 111
99 80 58 47 40 39 36 29 27 23 26 29 28 29 23 26 23 19 22 25 11 55 56 64 78 76 86 72 88 105 121 133 128 126 116 106 97 87 80 77 75 67 64
142 113 81 67 56 41 35 33 32 27 23 24 23 21 19 17 20 19 25 33 28 47 61 63 68 77 107 101 103 123 147 138 133 129 116 106 102 104 100 94 91 85 76
168 153 134 77 64 57 38 27 29 25 18 18 18 13 11 19 16 5 6 35 67 78 88 93 91 81 87 98 121 135 131 118 128 124 119 118 117 118 115 114 114 114 96
183 179 179 115 52 38 50 32 16 40 22 360 4 6 8 11 9 359 360 15 26 45 79 98 98 104 100 102 104 103 112 123 120 124 126 129 128 122 114 107 107 108 107
202 191 195 194 201 316 357 111 149 342 49 31 18 2 32 25 4 12 21 24 25 12 77 87 83 84 91 98 102 103 103 108 117 125 127 131 133 131 126 121 120 117 116
226 205 206 223 223 244 304 343 56 159 174 130 64 38 30 22 19 20 18 25 30 34 80 78 77 77 81 86 92 99 102 106 115 123 128 131 132 133 134 133 130 125 125
233 210 224 223 238 247 271 312 349 1 42 117 126 93 54 38 30 17 353 358 68 61 68 73 75 76 80 88 96 105 111 117 121 124 127 131 137 140 140 140 136 135 137
230 224 224 232 234 240 243 249 260 299 359 30 59 119 123 145 117 30 4 56 71 71 71 72 74 79 84 91 98 109 116 120 123 126 126 132 140 144 142 140 127 125 160
227 219 251 242 233 230 231 239 241 249 271 321 33 45 89 96 69 73 66 65 76 81 79 80 76 75 85 93 105 118 124 125 131 132 132 138 143 147 148 153 154 162 166
238 207 213 240 239 239 239 242 242 241 245 245 195 94 351 328 56 77 82 87 87 95 97 92 89 84 79 90 116 133 138 138 141 143 145 149 151 152 155 159 161 165 159
240 243 240 244 242 240 244 241 239 237 233 232 213 170 188 235 215 190 172 162 152 149 133 149 143 117 92 111 173 177 168 162 160 163 161 158 159 163 166 171 176 177 177
241 248 249 246 245 235 240 239 233 233 231 225 220 209 201 216 214 212 206 194 187 188 185 196 194 179 185 199 222 244 215 181 176 185 180 174 176 176 181 183 188 194 192
234 243 252 253 248 247 243 241 235 232 232 229 222 219 217 215 217 212 208 200 200 201 201 207 214 208 204 208 211 215 218 187 214 204 207 196 190 190 193 195 201 201 195
230 238 246 253 252 248 247 244 241 236 232 231 229 224 220 217 216 212 206 201 203 208 207 209 210 212 213 212 212 205 142 102 286 270 200 204 203 204 208 205 203 199 198
225 234 243 249 252 253 252 251 248 246 243 238 234 230 225 220 217 213 206 203 203 206 207 209 212 212 212 216 210 186 168 195 217 254 248 213 206 207 207 208 203 203 201